W0DXV Weather Reports


Display with metric or nautical units.
time (UTC)temp
F
wind
direction
speed
MPH
gust
MPH
rain 1hr
in
rain 24hr
in
rain mn
in
humidity
%
barometer
mb
20260507123433 63 220 0.0 0.0 0.12 0.20 0.20 99 1006.9
20260507122929 63 214 1.0 1.0 0.17 0.19 0.19 99 1006.8
20260507122424 63 238 0.0 0.0 0.24 0.18 0.18 99 1007.4
20260507121921 63 237 0.0 0.0 0.19 0.16 0.16 99 1007.3
20260507121416 63 237 0.0 0.0 0.07 0.14 0.14 99 1007.4
20260507120913 63 237 0.0 0.0 0.00 0.13 0.13 99 1007.1
20260507120409 63 236 0.0 1.0 0.00 0.13 0.13 99 1007.0
20260507115906 63 236 0.0 0.0 0.05 0.13 0.13 99 1006.7
20260507115401 63 235 0.0 0.0 0.07 0.12 0.12 99 1006.4
20260507114858 63 320 0.0 0.0 0.12 0.12 0.12 99 1006.6
20260507114355 63 29 1.0 1.0 0.12 0.11 0.11 99 1006.7
20260507113852 63 224 0.0 0.0 0.07 0.10 0.10 99 1006.8
20260507113349 63 226 0.0 0.0 0.05 0.09 0.09 99 1006.8
20260507112846 63 226 0.0 0.0 0.12 0.09 0.09 99 1006.6
20260507112343 63 223 0.0 0.0 0.07 0.08 0.08 99 1006.4
20260507111841 63 227 0.0 0.0 0.00 0.07 0.07 99 1006.6
20260507111338 63 227 0.0 0.0 0.00 0.07 0.07 99 1006.4
20260507110834 63 227 0.0 0.0 0.00 0.07 0.07 99 1006.4
20260507110330 63 227 0.0 0.0 0.00 0.07 0.07 99 1006.3
20260507105827 63 227 0.0 0.0 0.00 0.07 0.07 99 1006.1
20260507105323 63 227 0.0 0.0 0.00 0.07 0.07 99 1006.1
20260507104821 63 224 0.0 0.0 0.00 0.07 0.07 99 1005.5
20260507104317 63 222 0.0 0.0 0.00 0.07 0.07 99 1005.6
20260507103813 63 280 0.0 1.0 0.00 0.07 0.07 99 1006.0
20260507103309 63 280 0.0 0.0 0.00 0.07 0.07 99 1006.1
20260507102806 63 280 0.0 0.0 0.00 0.07 0.07 99 1006.1
20260507102306 63 280 0.0 0.0 0.00 0.07 0.07 99 1006.2
20260507101800 63 281 0.0 0.0 0.00 0.07 0.07 99 1006.4
20260507101259 63 281 0.0 0.0 0.00 0.07 0.07 99 1006.0
20260507100757 63 281 0.0 0.0 0.00 0.07 0.07 99 1006.0
20260507100255 63 281 0.0 0.0 0.00 0.07 0.07 99 1006.2
20260507095753 63 281 0.0 0.0 0.00 0.07 0.07 99 1006.2
20260507095249 63 281 0.0 0.0 0.00 0.07 0.07 99 1006.2
20260507094746 63 281 0.0 0.0 0.00 0.07 0.07 99 1006.2
20260507094243 63 282 0.0 0.0 0.00 0.07 0.07 99 1006.2
20260507093740 63 282 0.0 0.0 0.00 0.07 0.07 99 1006.2
20260507093238 63 286 0.0 0.0 0.00 0.07 0.07 99 1006.2
20260507092736 63 313 1.0 1.0 0.00 0.07 0.07 99 1006.3
20260507092231 63 242 0.0 0.0 0.00 0.07 0.07 99 1006.7
20260507091728 62 241 0.0 0.0 0.00 0.07 0.07 99 1006.8
20260507091225 63 242 0.0 1.0 0.00 0.07 0.07 99 1006.6
20260507090720 63 240 0.0 0.0 0.07 0.07 0.07 99 1006.3
20260507090217 63 241 0.0 0.0 0.07 0.07 0.07 99 1006.2
20260507085714 63 241 0.0 0.0 0.00 0.06 0.06 99 1006.3
20260507085211 62 280 0.0 0.0 0.00 0.06 0.06 99 1006.3
20260507084708 62 261 0.0 0.0 0.00 0.06 0.06 99 1006.4
20260507084204 62 263 0.0 1.0 0.00 0.06 0.06 99 1006.3
20260507083702 62 258 0.0 0.0 0.00 0.06 0.06 99 1005.9
20260507083158 62 259 0.0 0.0 0.00 0.06 0.06 99 1005.9
20260507082653 62 259 0.0 0.0 0.00 0.06 0.06 99 1005.6
20260507082149 63 259 1.0 1.0 0.00 0.06 0.06 99 1005.5
20260507081647 63 260 0.0 0.0 0.00 0.06 0.06 99 1005.6
20260507081143 63 290 0.0 1.0 0.00 0.06 0.06 99 1005.6
20260507080639 62 225 0.0 0.0 0.00 0.06 0.06 99 1005.8
20260507080136 62 195 0.0 0.0 0.00 0.06 0.06 99 1005.7
20260507075631 62 252 0.0 0.0 0.00 0.06 0.06 99 1006.1
20260507075127 62 252 0.0 0.0 0.00 0.06 0.06 99 1006.0
20260507074624 62 252 0.0 0.0 0.00 0.06 0.06 99 1006.2
20260507074122 63 252 0.0 0.0 0.00 0.06 0.06 99 1006.4
20260507073618 63 253 0.0 0.0 0.00 0.06 0.06 99 1006.5
20260507073114 63 190 0.0 0.0 0.00 0.06 0.06 99 1006.1
20260507072613 63 240 0.0 0.0 0.05 0.06 0.06 99 1006.5
20260507072109 63 240 0.0 1.0 0.05 0.06 0.06 99 1006.8
20260507071607 63 285 0.0 0.0 0.00 0.05 0.05 99 1007.3
20260507071103 63 243 0.0 0.0 0.00 0.05 0.05 99 1007.4
20260507070600 63 243 0.0 0.0 0.00 0.05 0.05 99 1007.4
20260507070057 63 243 0.0 0.0 0.00 0.05 0.05 99 1007.2
20260507065553 63 243 0.0 0.0 0.00 0.05 0.05 99 1007.0
20260507065051 63 243 0.0 0.0 0.00 0.05 0.05 99 1007.0
20260507064549 63 243 0.0 0.0 0.00 0.05 0.05 99 1007.1
20260507064047 63 242 0.0 0.0 0.00 0.05 0.05 99 1007.3
20260507063544 63 281 0.0 0.0 0.00 0.05 0.05 99 1007.2
20260507063041 63 281 0.0 0.0 0.00 0.05 0.05 99 1007.3
20260507062538 63 317 0.0 0.0 0.00 0.05 0.05 99 1007.2
20260507062035 63 207 0.0 0.0 0.00 0.05 0.05 99 1007.2
20260507061533 63 230 0.0 0.0 0.00 0.05 0.05 99 1007.3
20260507061031 63 230 0.0 0.0 0.07 0.05 0.05 99 1007.9
20260507060528 63 231 0.0 0.0 0.12 0.05 0.05 99 1007.6
20260507060025 63 215 0.0 1.0 0.05 0.04 0.04 99 1007.4
20260507055526 63 263 0.0 0.0 0.00 0.03 0.03 99 1008.0
20260507055022 63 199 1.0 1.0 0.00 0.03 0.03 99 1008.4
20260507054519 63 249 1.0 1.0 0.00 0.03 0.03 99 1008.4
20260507054016 63 264 0.0 0.0 0.00 0.03 0.03 99 1009.2
20260507053514 63 271 0.0 0.0 0.00 0.03 0.03 99 1008.8
20260507053012 63 231 0.0 0.0 0.07 0.03 0.03 99 1008.7
20260507052509 63 238 1.0 1.0 0.07 0.03 0.03 99 1008.7
20260507052006 63 305 0.0 1.0 0.00 0.02 0.02 99 1008.6
20260507051504 63 232 0.0 0.0 0.05 0.02 0.02 99 1008.5
20260507051000 63 232 0.0 0.0 0.12 0.02 0.02 99 1008.8
20260507050456 63 232 0.0 0.0 0.07 0.01 0.01 99 1008.8
20260507045953 63 196 1.0 1.0 0.05 0.23 0.23 99 1008.9
20260507045450 63 275 0.0 1.0 0.05 0.23 0.23 99 1009.5
20260507044948 63 281 0.0 0.0 0.00 0.22 0.22 99 1009.3
20260507044444 63 270 1.0 1.0 0.00 0.22 0.22 99 1009.1
20260507043940 63 251 0.0 0.0 0.00 0.22 0.22 99 1008.5
20260507043436 63 241 0.0 0.0 0.00 0.22 0.22 99 1008.5
20260507042933 63 213 0.0 0.0 0.00 0.22 0.22 99 1008.3
20260507042429 63 214 0.0 1.0 0.00 0.22 0.22 99 1008.5
20260507041925 63 212 0.0 0.0 0.00 0.22 0.22 99 1008.3
20260507041422 63 231 1.0 1.0 0.00 0.22 0.22 99 1008.6
20260507040920 63 228 2.0 2.0 0.00 0.22 0.22 99 1008.5
20260507040415 63 226 1.0 1.0 0.00 0.22 0.22 99 1008.7
20260507035911 63 227 1.0 1.0 0.00 0.22 0.22 99 1008.5
20260507035408 63 240 1.0 1.0 0.00 0.22 0.22 99 1008.6
20260507034905 63 269 1.0 1.0 0.00 0.22 0.22 99 1008.0
20260507034401 63 272 0.0 0.0 0.00 0.22 0.22 99 1008.0
20260507033859 63 300 1.0 2.0 0.07 0.22 0.22 99 1007.2
20260507033358 63 347 0.0 1.0 0.07 0.22 0.22 99 1005.6
20260507032854 63 199 1.0 1.0 0.00 0.21 0.21 99 1007.9
20260507032351 63 225 0.0 1.0 0.05 0.21 0.21 99 1007.9
20260507031847 63 211 0.0 1.0 0.05 0.21 0.21 99 1008.7
20260507031344 63 211 0.0 0.0 0.00 0.20 0.20 99 1009.0
20260507030841 64 219 0.0 0.0 0.07 0.20 0.20 98 1009.6
20260507030338 64 240 0.0 0.0 0.07 0.20 0.20 98 1010.2
20260507025834 64 239 0.0 0.0 0.00 0.19 0.19 98 1010.1
20260507025332 64 235 1.0 1.0 0.00 0.19 0.19 98 1009.7
20260507024830 64 244 1.0 1.0 0.07 0.19 0.19 98 1009.5
20260507024327 64 172 1.0 1.0 0.19 0.19 0.19 98 1009.2
20260507023822 64 246 1.0 2.0 0.17 0.18 0.18 98 1009.4
20260507023319 64 222 0.0 1.0 0.05 0.16 0.16 98 1009.5
20260507022811 64 237 1.0 2.0 0.07 0.15 0.15 98 1009.5
20260507022307 65 243 0.0 0.0 0.07 0.15 0.15 98 1009.2
20260507021803 65 216 1.0 2.0 0.05 0.14 0.14 98 1009.3
20260507021259 65 233 0.0 0.0 0.05 0.14 0.14 98 1009.1
20260507020757 65 232 2.0 2.0 0.07 0.13 0.13 97 1009.3
20260507020254 65 237 2.0 2.0 0.12 0.13 0.13 97 1009.3
20260507015751 65 210 2.0 2.0 0.12 0.12 0.12 97 1008.9
20260507015248 66 249 2.0 2.0 0.07 0.11 0.11 97 1008.9
20260507014745 66 241 0.0 1.0 0.00 0.10 0.10 97 1008.9
20260507014241 66 233 2.0 3.0 0.00 0.10 0.10 98 1008.6
20260507013738 66 231 1.0 1.0 0.00 0.10 0.10 97 1008.5
20260507013236 66 233 1.0 1.0 0.00 0.10 0.10 97 1008.4
20260507012733 67 245 1.0 1.0 0.00 0.10 0.10 97 1008.3
20260507012228 67 224 2.0 2.0 0.05 0.10 0.10 97 1008.3
20260507011726 67 235 1.0 1.0 0.12 0.10 0.10 97 1007.9
20260507011223 67 271 1.0 1.0 0.07 0.09 0.09 97 1007.9
20260507010722 67 256 0.0 0.0 0.05 0.08 0.08 97 1008.1
20260507010218 67 266 0.0 0.0 0.05 0.08 0.08 97 1008.1
20260507005716 67 240 0.0 0.0 0.00 0.07 0.07 97 1008.1
20260507005212 67 244 1.0 1.0 0.00 0.07 0.07 96 1008.2
20260507004709 67 226 0.0 1.0 0.00 0.07 0.07 96 1008.3
20260507004207 67 254 1.0 1.0 0.00 0.07 0.07 96 1008.3
20260507003703 67 255 0.0 0.0 0.00 0.07 0.07 96 1008.1
20260507003158 67 255 0.0 0.0 0.00 0.07 0.07 95 1008.4
20260507002654 67 253 0.0 0.0 0.00 0.07 0.07 95 1008.4
20260507002150 68 246 0.0 1.0 0.00 0.07 0.07 94 1007.9
20260507001647 68 247 0.0 0.0 0.00 0.07 0.07 94 1007.7
20260507001145 68 247 0.0 0.0 0.00 0.07 0.07 93 1007.9
20260507000641 68 247 0.0 0.0 0.00 0.07 0.07 93 1007.9
20260507000136 68 228 0.0 1.0 0.00 0.07 0.07 92 1007.7
20260506235634 69 243 0.0 0.0 0.07 0.07 0.07 91 1007.8
20260506235134 69 243 0.0 0.0 0.07 0.07 0.07 89 1008.1
20260506234631 70 245 0.0 1.0 0.00 0.06 0.06 87 1008.0
20260506234128 69 215 1.0 1.0 0.00 0.06 0.06 88 1007.6
20260506233625 69 254 0.0 0.0 0.00 0.06 0.06 88 1007.8
20260506233123 70 253 0.0 0.0 0.00 0.06 0.06 88 1007.6
20260506232618 70 253 0.0 0.0 0.00 0.06 0.06 87 1007.8
20260506232114 70 245 0.0 0.0 0.00 0.06 0.06 87 1008.0
20260506231611 70 243 0.0 0.0 0.00 0.06 0.06 87 1007.7
20260506231110 71 243 1.0 1.0 0.00 0.06 0.06 85 1007.9
20260506230606 71 273 0.0 0.0 0.00 0.06 0.06 83 1007.7
20260506230103 71 254 0.0 1.0 0.00 0.06 0.06 83 1007.8
20260506225559 71 207 0.0 0.0 0.00 0.06 0.06 82 1007.9
20260506225056 72 207 0.0 0.0 0.00 0.06 0.06 82 1008.2
20260506224553 72 261 0.0 1.0 0.00 0.06 0.06 82 1008.3
20260506224050 72 231 0.0 1.0 0.00 0.06 0.06 82 1008.6
20260506223545 72 238 0.0 0.0 0.00 0.06 0.06 81 1008.4
20260506223042 72 234 0.0 0.0 0.00 0.06 0.06 80 1008.3
20260506222539 72 248 1.0 1.0 0.00 0.06 0.06 80 1008.2
20260506222035 72 256 0.0 0.0 0.00 0.06 0.06 80 1008.4
20260506221533 72 222 0.0 0.0 0.00 0.06 0.06 80 1008.4
20260506221031 72 231 0.0 0.0 0.00 0.06 0.06 79 1008.3
20260506220526 72 184 1.0 1.0 0.00 0.06 0.06 79 1008.3
20260506220022 72 248 1.0 1.0 0.00 0.06 0.06 79 1008.7
20260506215519 72 215 1.0 1.0 0.00 0.06 0.06 79 1008.3
20260506215015 73 220 1.0 1.0 0.00 0.06 0.06 78 1008.3
20260506214512 73 237 1.0 2.0 0.00 0.06 0.06 78 1008.4
20260506214009 73 230 1.0 1.0 0.00 0.06 0.06 78 1008.3
20260506213508 73 204 1.0 1.0 0.00 0.06 0.06 79 1008.4
20260506213004 73 228 2.0 2.0 0.00 0.06 0.06 78 1008.3
20260506212500 73 240 1.0 2.0 0.00 0.06 0.06 79 1008.0
20260506211955 73 227 1.0 1.0 0.00 0.06 0.06 78 1007.9
20260506211451 73 275 0.0 0.0 0.00 0.06 0.06 79 1007.6
20260506210949 72 243 1.0 1.0 0.00 0.06 0.06 78 1007.9
20260506210445 72 242 1.0 1.0 0.00 0.06 0.06 78 1007.9
20260506205942 73 248 3.0 3.0 0.00 0.06 0.06 77 1007.9
20260506205438 73 233 1.0 2.0 0.00 0.06 0.06 78 1007.8
20260506204934 72 220 3.0 3.0 0.00 0.06 0.06 79 1008.1
20260506204433 72 226 2.0 2.0 0.00 0.06 0.06 79 1008.2
20260506203930 73 253 1.0 2.0 0.00 0.06 0.06 78 1008.4
20260506203427 73 277 2.0 2.0 0.00 0.06 0.06 76 1008.3
20260506202924 73 264 2.0 2.0 0.00 0.06 0.06 76 1008.5
20260506202421 73 266 1.0 1.0 0.00 0.06 0.06 78 1008.7
20260506201917 73 210 3.0 5.0 0.00 0.06 0.06 78 1008.6
20260506201415 73 302 1.0 1.0 0.00 0.06 0.06 76 1008.3
20260506200911 73 257 1.0 1.0 0.00 0.06 0.06 77 1008.6
20260506200407 73 250 3.0 3.0 0.00 0.06 0.06 78 1008.5
20260506195904 71 253 1.0 1.0 0.00 0.06 0.06 79 1008.4
20260506195401 71 231 3.0 5.0 0.00 0.06 0.06 80 1008.5
20260506194858 71 254 2.0 2.0 0.00 0.06 0.06 80 1008.5
20260506194355 71 244 1.0 1.0 0.00 0.06 0.06 84 1008.3
20260506193852 71 270 1.0 2.0 0.00 0.06 0.06 82 1008.2
20260506193349 71 218 3.0 5.0 0.00 0.06 0.06 82 1008.4
20260506192845 70 246 2.0 2.0 0.00 0.06 0.06 84 1009.0
20260506192342 69 255 1.0 2.0 0.00 0.06 0.06 85 1008.6
20260506191839 69 230 2.0 2.0 0.00 0.06 0.06 86 1008.8
20260506191335 68 233 2.0 3.0 0.00 0.06 0.06 87 1008.6
20260506190832 68 224 2.0 3.0 0.00 0.06 0.06 86 1008.4
20260506190328 68 237 1.0 5.0 0.00 0.06 0.06 89 1008.6
20260506185826 67 256 1.0 1.0 0.00 0.06 0.06 89 1008.9
20260506185323 67 242 2.0 3.0 0.00 0.06 0.06 91 1008.6
20260506184820 67 265 1.0 1.0 0.00 0.06 0.06 90 1008.8
20260506184317 66 244 0.0 1.0 0.00 0.06 0.06 91 1009.0
20260506183814 66 223 1.0 2.0 0.00 0.06 0.06 90 1008.9
20260506183309 66 232 2.0 2.0 0.00 0.06 0.06 91 1009.0
20260506182807 66 241 1.0 1.0 0.00 0.06 0.06 92 1009.3
20260506182306 66 231 1.0 1.0 0.00 0.06 0.06 93 1009.3
20260506181801 66 269 1.0 1.0 0.00 0.06 0.06 94 1008.9
20260506181259 66 248 1.0 1.0 0.00 0.06 0.06 94 1008.8
20260506180756 66 215 1.0 2.0 0.00 0.06 0.06 93 1008.6
20260506180252 66 175 1.0 1.0 0.00 0.06 0.06 94 1008.8
20260506175748 65 244 0.0 1.0 0.00 0.06 0.06 95 1009.1
20260506175245 64 147 1.0 1.0 0.00 0.06 0.06 96 1009.7
20260506174743 64 243 1.0 1.0 0.00 0.06 0.06 95 1010.2
20260506174239 64 227 1.0 2.0 0.00 0.06 0.06 95 1010.7
20260506173737 64 224 1.0 1.0 0.00 0.06 0.06 95 1010.7
20260506173234 64 247 0.0 0.0 0.07 0.06 0.06 94 1010.7
20260506172731 64 244 0.0 0.0 0.07 0.06 0.06 94 1010.4
20260506172227 64 232 1.0 1.0 0.00 0.05 0.05 93 1010.7
20260506171725 64 229 0.0 1.0 0.05 0.05 0.05 91 1010.7
20260506171222 65 256 0.0 1.0 0.28 0.05 0.05 89 1010.9
20260506170719 67 238 1.0 1.0 0.24 0.04 0.04 85 1010.7
20260506170216 68 229 2.0 2.0 0.00 0.00 0.00 81 1011.2
20260506165715 69 243 0.0 1.0 0.00 0.00 0.00 77 1010.6
20260506165211 69 232 1.0 2.0 0.00 0.00 0.00 75 1010.3
20260506164708 70 237 1.0 1.0 0.00 0.00 0.00 74 1010.5
20260506164205 70 230 1.0 1.0 0.00 0.00 0.00 72 1010.4
20260506163702 70 246 0.0 1.0 0.00 0.00 0.00 71 1010.4
20260506163157 70 230 0.0 1.0 0.00 0.00 0.00 73 1010.6
20260506162653 70 249 1.0 1.0 0.00 0.00 0.00 71 1010.4
20260506162151 70 251 1.0 1.0 0.00 0.00 0.00 69 1010.3
20260506161648 71 224 1.0 1.0 0.00 0.00 0.00 71 1010.4
20260506161144 71 252 1.0 1.0 0.00 0.00 0.00 69 1010.6
20260506160642 70 268 1.0 1.0 0.00 0.00 0.00 71 1010.5
20260506160139 70 272 1.0 1.0 0.00 0.00 0.00 72 1010.3
20260506155638 69 247 0.0 0.0 0.00 0.00 0.00 73 1010.3
20260506155134 68 248 0.0 0.0 0.00 0.00 0.00 77 1009.9
20260506153236 68 270 0.0 0.0 0.00 0.00 0.00 77 1009.9
20260506152733 67 254 1.0 1.0 0.00 0.00 0.00 77 1009.4
20260506152230 67 236 1.0 1.0 0.00 0.00 0.00 78 1009.4
20260506151730 67 237 1.0 1.0 0.00 0.00 0.00 78 1009.3
20260506151226 67 250 0.0 0.0 0.00 0.00 0.00 78 1009.6
20260506150722 67 260 0.0 0.0 0.00 0.00 0.00 77 1009.4
20260506150219 67 249 0.0 0.0 0.00 0.00 0.00 77 1009.6
20260506145717 66 250 1.0 1.0 0.00 0.00 0.00 77 1009.7
20260506145213 66 254 1.0 1.0 0.00 0.00 0.00 78 1009.8
20260506144710 66 237 0.0 0.0 0.00 0.00 0.00 78 1009.7
20260506144207 65 239 1.0 1.0 0.00 0.00 0.00 77 1009.8
20260506143705 65 240 1.0 1.0 0.00 0.00 0.00 79 1010.0
20260506143202 65 242 0.0 0.0 0.00 0.00 0.00 79 1009.9
20260506142701 65 237 1.0 1.0 0.00 0.00 0.00 79 1010.2
20260506142158 65 237 0.0 1.0 0.00 0.00 0.00 78 1010.0
20260506141656 65 239 1.0 2.0 0.00 0.00 0.00 78 1010.0
20260506141154 65 239 1.0 1.0 0.00 0.00 0.00 77 1009.9
20260506140651 65 242 0.0 0.0 0.00 0.00 0.00 77 1010.0
20260506140148 65 241 0.0 1.0 0.00 0.00 0.00 76 1009.8
20260506135645 66 238 1.0 1.0 0.00 0.00 0.00 76 1009.9
20260506135141 65 259 0.0 0.0 0.00 0.00 0.00 76 1009.9
20260506134638 65 261 0.0 0.0 0.00 0.00 0.00 76 1009.7
20260506134134 65 289 2.0 2.0 0.00 0.00 0.00 76 1009.7
20260506133631 64 229 1.0 2.0 0.00 0.00 0.00 77 1009.5
20260506133128 64 248 1.0 1.0 0.00 0.00 0.00 76 1009.8
20260506132625 64 231 2.0 2.0 0.00 0.00 0.00 77 1009.8
20260506132122 64 254 0.0 1.0 0.00 0.00 0.00 78 1009.8
20260506131620 64 261 1.0 1.0 0.00 0.00 0.00 77 1010.0
20260506131116 64 281 1.0 1.0 0.00 0.00 0.00 77 1009.5
20260506130613 64 243 1.0 2.0 0.00 0.00 0.00 76 1009.6
20260506130110 64 248 2.0 2.0 0.00 0.00 0.00 76 1009.6
20260506125609 64 228 2.0 2.0 0.00 0.00 0.00 77 1009.2
20260506125106 64 233 1.0 1.0 0.00 0.00 0.00 78 1009.5
20260506124604 64 242 1.0 1.0 0.00 0.00 0.00 77 1009.6
20260506124101 64 244 1.0 2.0 0.00 0.00 0.00 77 1009.8